Regional Weather Roundup
Issued by NWS

Home | Current Version | Previous Version | Graphics & Text | Print | Product List | Glossary On
Versions: 1 2 3 4 5 6 7 8 9 10 11 12 13 14 15 16 17 18 19 20 21 22 23 24 25 26 27 28 29 30 31 32 33 34 35 36 37 38 39 40 41 42 43 44 45 46 47 48 49 50
000
ASUS45 KSLC 060410
RWRUT

UTAH REGIONAL WEATHER ROUNDUP
NATIONAL WEATHER SERVICE SALT LAKE CITY UT
900 PM MST THU MAR 05 2015

UTZ001>011-023>025-060500-

NORTHERN UTAH

CITY           SKY/WX    TMP DP  RH WIND       PRES   REMARKS
BRIGHAM CITY   CLEAR     34  23  64 SE3       30.43S
HILL AFB       CLEAR     37  16  42 E9        30.41S WCI  30
LOGAN          CLEAR     34  22  61 CALM      30.42S
OGDEN          CLEAR     34  23  64 S7        30.41S WCI  28
PROVO AIRPORT  PTCLDY    36  25  64 CALM      30.44R
SALT LAKE CITY PTCLDY    38  22  52 SE9       30.42R WCI  31
VERNAL         CLEAR     28  19  69 W5        30.39R WCI  23
WENDOVER       CLEAR     37  21  52 W5        30.41R WCI  34
HEBER CITY     CLEAR     27  21  80 CALM      30.43R
WEST JORDAN    CLEAR     36  25  64 SW7       30.43S WCI  30

$$

UTZ012>022-026-027-060500-

SOUTHERN/CENTRAL UTAH

CITY           SKY/WX    TMP DP  RH WIND       PRES   REMARKS
BLANDING       CLEAR     30  25  82 N7        30.46S WCI  23
BRYCE CANYON   CLEAR     10   2  69 CALM      30.41S
CEDAR CITY     CLEAR     27  17  66 CALM      30.39R
DELTA          CLEAR     35  24  65 E3        30.42S
HANKSVILLE     CLEAR     36  25  64 N3        30.41R
MILFORD        CLEAR     32  22  66 NW6       30.41R WCI  26
MOAB/CYNLANDS  CLEAR     28  18  66 W5        30.38S WCI  23
PRICE          CLEAR     30  21  69 NE7       30.39R WCI  23
ST GEORGE      CLEAR     46  30  53 SW3       30.37R
KANAB          CLEAR     37  23  56 NW10      30.41R WCI  30

$$

REGIONAL REPORTS     COLORADO/ARIZONA

CITY           SKY/WX    TMP DP  RH WIND       PRES   REMARKS
CRAIG, CO      PTCLDY    24  14  65 E3        30.39R
GRAND JUNCTION CLEAR     30  21  69 CALM      30.41R
RIFLE          CLEAR     30  20  66 S3        30.41R
MONTROSE       PTCLDY    30  22  72 SE8       30.43R WCI  22
CORTEZ         CLEAR     29  22  75 NE8       30.39S WCI  21
PAGE, AZ       CLEAR     44  22  41 S5        30.37S
GRAND CANYON   CLEAR     24  17  74 CALM      30.39S
KINGMAN        CLEAR     43  30  60 E9        30.31S
FLAGSTAFF      CLEAR     26  16  65 CALM      30.38R

$$

REGIONAL REPORTS    NEVADA/IDAHO/WYOMING

CITY           SKY/WX    TMP DP  RH WIND       PRES   REMARKS
LAS VEGAS, NV  CLEAR     59  24  26 S6        30.28R
ELY            CLEAR     29  21  72 S6        30.41R WCI  23
ELKO           CLEAR     33  14  45 CALM      30.39R
POCATELLO, ID  CLEAR     41  18  39 S13       30.35S
BURLEY         MOCLDY    39  15  37 SW8       30.33F WCI  33
EVANSTON, WY   PTCLDY    25  13  60 SW10      30.39S WCI  15
ROCK SPRINGS   NOT AVBL

$$


USA.gov is the U.S. government's official web portal to all federal, state and local government web resources and services.